This is the latest recevied weather packets stored in our database for station/object SP2ARQ-13. If no packets are shown the sender has not sent any weather packets the latest 10 day(s).
| Time | Temp. | Humidity | Pressure | Rain* | Wind** | Luminosity | Snow |
|---|---|---|---|---|---|---|---|
| 1777800471 | 26.67° C | 35% | 1015 hPa | - | - | - | - |
| 1777799570 | 26.11° C | 35% | 1015.2 hPa | - | - | - | - |
| 1777798670 | 25.56° C | 36% | 1015.3 hPa | - | - | - | - |
| 1777797770 | 25.56° C | 37% | 1015.4 hPa | - | - | - | - |
| 1777796870 | 24.44° C | 37% | 1015.3 hPa | - | - | - | - |
| 1777795970 | 23.89° C | 38% | 1015.4 hPa | - | - | - | - |
| 1777795069 | 23.33° C | 39% | 1015.6 hPa | - | - | - | - |
| 1777794169 | 22.22° C | 41% | 1015.7 hPa | - | - | - | - |
| 1777793269 | 21.67° C | 41% | 1015.9 hPa | - | - | - | - |
| 1777792369 | 20.56° C | 43% | 1015.9 hPa | - | - | - | - |
| 1777791469 | 20° C | 43% | 1015.8 hPa | - | - | - | - |
| 1777790569 | 19.44° C | 47% | 1015.9 hPa | - | - | - | - |
| 1777789668 | 18.33° C | 49% | 1016 hPa | - | - | - | - |
| 1777788768 | 17.22° C | 50% | 1016.1 hPa | - | - | - | - |
| 1777787868 | 16.67° C | 52% | 1016.1 hPa | - | - | - | - |
| 1777786968 | 16.11° C | 54% | 1016.1 hPa | - | - | - | - |
| 1777786068 | 15° C | 56% | 1016.2 hPa | - | - | - | - |
| 1777785168 | 13.89° C | 59% | 1016.3 hPa | - | - | - | - |
| 1777784267 | 13.33° C | 59% | 1016.2 hPa | - | - | - | - |
| 1777783367 | 12.78° C | 61% | 1016.3 hPa | - | - | - | - |
| 1777782467 | 12.22° C | 63% | 1016.4 hPa | - | - | - | - |
| 1777781567 | 11.67° C | 65% | 1016.3 hPa | - | - | - | - |
| 1777780667 | 11.11° C | 65% | 1016.2 hPa | - | - | - | - |
| 1777779766 | 11.11° C | 64% | 1016.2 hPa | - | - | - | - |
| 1777778866 | 11.11° C | 64% | 1016.3 hPa | - | - | - | - |
* Rain since midnight (hover to see other rain measurements)
** Current wind speed in m/s (hover to see current wind gust speed)